Regional Weather Roundup
Issued by NWS

Home | Current Version | Previous Version | Graphics & Text | Print | Product List | Glossary On
Versions: 1 2 3 4 5 6 7 8 9 10 11 12 13 14 15 16 17 18 19 20 21 22 23 24 25 26 27 28 29 30 31 32 33 34 35 36 37 38 39 40 41 42 43 44 45 46 47 48 49 50
000
ASUS43 KOAX 201910
RWRNE

WEATHER ROUNDUP FOR NEBRASKA
NATIONAL WEATHER SERVICE OMAHA NE
200 PM CDT SAT SEP 20 2014

NOTES: SATELLITE DATA IS BEING USED TO AUGMENT CLOUD COVER ABOVE
       12000 FEET.
       "FAIR" INDICATES FEW OR NO CLOUDS BELOW 12,000 FEET WITH NO
       SIGNIFICANT WEATHER AND/OR OBSTRUCTIONS TO VISIBILITY.

  * THESE STATIONS DO NOT REPORT WEATHER SUCH AS RAIN...SNOW OR FOG.

NEZ001>004-019>022-054>056-202000-
NEBRASKA PANHANDLE

CITY           SKY/WX    TMP DP  RH WIND       PRES   REMARKS
SCOTTSBLUFF    SUNNY     81  50  33 W10       30.18F
ALLIANCE       SUNNY     80  45  28 N14       30.17S
CHADRON        SUNNY     80  45  28 NW21G29   30.15S
KIMBALL        SUNNY     77  45  32 CALM      30.22S
SIDNEY         SUNNY     81  46  29 NE7       30.21S
$$

NEZ057>060-069>072-079>082-202000-
SOUTHWEST NEBRASKA

CITY           SKY/WX    TMP DP  RH WIND       PRES   REMARKS
NORTH PLATTE   SUNNY     83  49  30 N8        30.09S
IMPERIAL       SUNNY     83  46  27 N10       30.13S
LEXINGTON      SUNNY     83  51  32 NE6       30.06S
MCCOOK         SUNNY     85  50  29 NE12      30.07F
OGALLALA       SUNNY     83  49  30 N8        30.14R
$$

NEZ005>010-023>029-035>040-094-202000-
NORTH CENTRAL NEBRASKA

CITY           SKY/WX    TMP DP  RH WIND       PRES   REMARKS
VALENTINE      SUNNY     82  47  29 NW20G33   30.06R
AINSWORTH      SUNNY     80  47  31 NW10      30.06S
BROKEN BOW     SUNNY     85  49  28 N15       30.05S
O`NEILL        SUNNY     81  54  38 NW15      30.01S
ORD            SUNNY     82  53  36 N9        30.01S
THEDFORD       SUNNY     82  49  30 NW14G21   30.09S
$$

NEZ041-046>049-061>064-073>077-083>087-202000-
SOUTH CENTRAL NEBRASKA

CITY           SKY/WX    TMP DP  RH WIND       PRES   REMARKS
GRAND ISLAND   SUNNY     85  54  34 N8        30.01S
AURORA         SUNNY     82  53  35 NW5       30.00S
HASTINGS       SUNNY     84  51  31 NE8       30.01S
HEBRON         MOSUNNY   85  55  34 NE10      29.98S
HOLDREGE       SUNNY     81  52  36 NE8       30.04S
KEARNEY *      SUNNY     81  54  39 N6        30.04S
YORK           SUNNY     82  59  44 NW5       29.99R
$$

NEZ011>018-030>034-042>045-202000-
NORTHEAST NEBRASKA

CITY           SKY/WX    TMP DP  RH WIND       PRES   REMARKS
NORFOLK        SUNNY     82  55  39 NW13      29.96S
ALBION         SUNNY     82  51  34 NW10      29.99S
BLAIR          SUNNY     83  60  46 W8        29.93S
COLUMBUS *     SUNNY     82  55  39 NW8       29.98S
FREMONT        SUNNY     83  57  40 W12       29.94S
TEKAMAH        SUNNY     85  60  42 NW9       29.92
WAYNE          SUNNY     83  56  40 NW14      29.95S
$$

NEZ050>053-065>068-078-088>093-202000-
SOUTHEAST NEBRASKA

CITY           SKY/WX    TMP DP  RH WIND       PRES   REMARKS
LINCOLN        SUNNY     86  62  44 CALM      29.96R
OMAHA EPPLEY   MOSUNNY   82  67  60 SW8       29.92S
BEATRICE       PTSUNNY   80  64  58 CALM      29.96F
FALLS CITY     PTSUNNY   75  72  90 W10       29.94R
NEBRASKA CITY    N/A     79  62  55 SW10      29.94F
PLATTSMOUTH    SUNNY     80  66  61 W10       29.94R
$$

NEZ044-045-051>053-067-202000-
OMAHA AREA

CITY           SKY/WX    TMP DP  RH WIND       PRES   REMARKS
OMAHA EPPLEY   MOSUNNY   82  67  60 SW8       29.92S
BLAIR          SUNNY     83  60  46 W8        29.93S
FREMONT        SUNNY     83  57  40 W12       29.94S
MILLARD        SUNNY     82  67  60 W8        29.93S
OFFUTT AFB     SUNNY     82  71  68 W8        29.93R
PLATTSMOUTH    SUNNY     80  66  61 W10       29.94R
WAHOO          FAIR      84  57  39 NW7       29.95S
$$



USA.gov is the U.S. government's official web portal to all federal, state and local government web resources and services.